| time (UTC) | temp C | wind direction | speed KPH | gust KPH | rain 1hr cm | rain 24hr cm | rain mn cm | humidity % | barometer mb |
| 20260505083019 | 13 | 149 | 3.2 | 8.0 | 0.00 | 0.00 | 0.00 | 70 | 1007.1 |
| 20260505081514 | 14 | 209 | 3.2 | 6.4 | 0.00 | 0.00 | 0.00 | 68 | 1007.1 |
| 20260505080015 | 14 | 209 | 4.8 | 11.3 | 0.00 | 0.00 | 0.00 | 67 | 1007.0 |
| 20260505074511 | 14 | 223 | 3.2 | 8.0 | 0.00 | 0.00 | 0.00 | 69 | 1007.0 |
| 20260505073010 | 13 | 180 | 3.2 | 8.0 | 0.00 | 0.00 | 0.00 | 70 | 1006.9 |
| 20260505071508 | 14 | 177 | 3.2 | 9.7 | 0.00 | 0.00 | 0.00 | 70 | 1006.8 |
| 20260505070005 | 15 | 132 | 1.6 | 8.0 | 0.00 | 0.00 | 0.00 | 68 | 1006.7 |
| 20260505064506 | 15 | 227 | 4.8 | 14.5 | 0.00 | 0.00 | 0.00 | 67 | 1006.6 |
| 20260505063006 | 15 | 239 | 4.8 | 11.3 | 0.00 | 0.00 | 0.00 | 68 | 1006.6 |
| 20260505061502 | 15 | 215 | 6.4 | 12.9 | 0.00 | 0.00 | 0.00 | 68 | 1006.7 |
| 20260505060002 | 15 | 225 | 4.8 | 9.7 | 0.00 | 0.00 | 0.00 | 67 | 1006.6 |
| 20260505054611 | 15 | 207 | 6.4 | 9.7 | 0.00 | 0.00 | 0.00 | 67 | 1006.6 |
| 20260505053001 | 15 | 227 | 6.4 | 11.3 | 0.00 | 0.00 | 0.00 | 66 | 1006.5 |
| 20260505051600 | 15 | 234 | 6.4 | 9.7 | 0.00 | 0.00 | 0.00 | 64 | 1006.5 |
| 20260505041600 | 15 | 164 | 4.8 | 6.4 | 0.00 | 0.00 | 0.00 | 61 | 1006.3 |
| 20260505040058 | 13 | 185 | 1.6 | 8.0 | 0.00 | 0.00 | 0.00 | 64 | 1006.1 |
| 20260505034557 | 11 | 83 | 4.8 | 6.4 | 0.00 | 0.00 | 0.00 | 71 | 1005.6 |
| 20260505033057 | 12 | 77 | 4.8 | 6.4 | 0.00 | 0.00 | 0.00 | 71 | 1005.5 |
| 20260505031605 | 12 | 83 | 6.4 | 6.4 | 0.00 | 0.00 | 0.00 | 72 | 1005.4 |
| 20260505030054 | 15 | 83 | 4.8 | 6.4 | 0.00 | 0.00 | 0.00 | 67 | 1005.2 |
| 20260505024602 | 17 | 77 | 3.2 | 4.8 | 0.00 | 0.00 | 0.00 | 59 | 1005.1 |
| 20260505023052 | 21 | 121 | 0.0 | 1.6 | 0.00 | 0.00 | 0.00 | 44 | 1005.1 |
| 20260505021554 | 23 | 47 | 0.0 | 1.6 | 0.00 | 0.00 | 0.00 | 38 | 1005.2 |
| 20260505020051 | 23 | 25 | 0.0 | 4.8 | 0.00 | 0.00 | 0.00 | 35 | 1005.2 |
| 20260505014604 | 23 | 297 | 1.6 | 6.4 | 0.00 | 0.00 | 0.00 | 36 | 1005.2 |
| 20260505013051 | 24 | 329 | 3.2 | 8.0 | 0.00 | 0.00 | 0.00 | 34 | 1005.4 |
| 20260505011556 | 24 | 324 | 4.8 | 16.1 | 0.00 | 0.00 | 0.00 | 31 | 1005.5 |
| 20260505010046 | 25 | 353 | 4.8 | 9.7 | 0.00 | 0.00 | 0.00 | 31 | 1005.6 |
| 20260505004545 | 24 | 355 | 4.8 | 12.9 | 0.00 | 0.00 | 0.00 | 29 | 1005.7 |
| 20260505003044 | 24 | 299 | 3.2 | 12.9 | 0.00 | 0.00 | 0.00 | 32 | 1005.7 |
| 20260505001543 | 24 | 315 | 6.4 | 16.1 | 0.00 | 0.00 | 0.00 | 29 | 1005.7 |
| 20260505000054 | 24 | 311 | 11.3 | 20.9 | 0.00 | 0.00 | 0.00 | 27 | 1005.9 |
| 20260504234547 | 24 | 303 | 3.2 | 11.3 | 0.00 | 0.00 | 0.00 | 30 | 1005.9 |
| 20260504233100 | 24 | 313 | 3.2 | 17.7 | 0.00 | 0.00 | 0.00 | 29 | 1005.9 |
| 20260504231540 | 24 | 315 | 3.2 | 12.9 | 0.00 | 0.00 | 0.00 | 28 | 1006.0 |
| 20260504230038 | 24 | 41 | 4.8 | 12.9 | 0.00 | 0.00 | 0.00 | 30 | 1006.1 |
| 20260504224539 | 24 | 305 | 6.4 | 11.3 | 0.00 | 0.00 | 0.00 | 31 | 1006.3 |
| 20260504223053 | 24 | 58 | 4.8 | 16.1 | 0.00 | 0.00 | 0.00 | 30 | 1006.4 |
| 20260504221536 | 25 | 346 | 6.4 | 16.1 | 0.00 | 0.00 | 0.00 | 30 | 1006.6 |
| 20260504220031 | 24 | 296 | 4.8 | 12.9 | 0.00 | 0.00 | 0.00 | 32 | 1006.7 |
| 20260504214531 | 23 | 346 | 3.2 | 17.7 | 0.00 | 0.00 | 0.00 | 33 | 1006.8 |
| 20260504213040 | 23 | 317 | 8.0 | 19.3 | 0.00 | 0.00 | 0.00 | 30 | 1006.9 |
| 20260504211533 | 23 | 308 | 8.0 | 16.1 | 0.00 | 0.00 | 0.00 | 30 | 1006.9 |
| 20260504210026 | 24 | 305 | 4.8 | 16.1 | 0.00 | 0.00 | 0.00 | 33 | 1007.1 |
| 20260504204535 | 24 | 38 | 6.4 | 11.3 | 0.00 | 0.00 | 0.00 | 29 | 1007.1 |
| 20260504203024 | 24 | 346 | 8.0 | 17.7 | 0.00 | 0.00 | 0.00 | 31 | 1007.3 |
| 20260504201519 | 23 | 296 | 4.8 | 14.5 | 0.00 | 0.00 | 0.00 | 36 | 1007.3 |
| 20260504200016 | 23 | 299 | 4.8 | 16.1 | 0.00 | 0.00 | 0.00 | 39 | 1007.4 |
| 20260504194515 | 23 | 303 | 8.0 | 17.7 | 0.00 | 0.00 | 0.00 | 42 | 1007.5 |
| 20260504193012 | 22 | 288 | 4.8 | 11.3 | 0.00 | 0.00 | 0.00 | 39 | 1007.6 |
| 20260504191511 | 22 | 226 | 6.4 | 12.9 | 0.00 | 0.00 | 0.00 | 40 | 1007.6 |
| 20260504190008 | 22 | 282 | 8.0 | 12.9 | 0.00 | 0.00 | 0.00 | 42 | 1007.8 |
| 20260504184509 | 22 | 294 | 4.8 | 8.0 | 0.00 | 0.00 | 0.00 | 37 | 1007.8 |
| 20260504183007 | 21 | 285 | 4.8 | 11.3 | 0.00 | 0.00 | 0.00 | 43 | 1007.9 |
| 20260504181511 | 21 | 285 | 6.4 | 12.9 | 0.00 | 0.00 | 0.00 | 41 | 1007.9 |
| 20260504180003 | 21 | 294 | 4.8 | 9.7 | 0.00 | 0.00 | 0.00 | 44 | 1007.9 |
| 20260504174503 | 21 | 308 | 3.2 | 9.7 | 0.00 | 0.00 | 0.00 | 40 | 1008.0 |
| 20260504173102 | 21 | 260 | 4.8 | 9.7 | 0.00 | 0.00 | 0.00 | 42 | 1007.9 |
| 20260504171557 | 20 | 274 | 4.8 | 9.7 | 0.00 | 0.00 | 0.00 | 43 | 1008.0 |